Location: Foligno
(42.9600°N, 12.7050°E)
Time: 12:12:46
(UTC+02:00)

ISS - Pass Details

Date: 20 May 2018
Orbit: 402 x 407 km, 51.6° (Epoch: 24 May)

Event Time Altitude Azimuth Distance (km) Brightness Sun altitude
Exits shadow 01:38:48 11° 314° (NW) 1,417 -0.7 -26.7°
Maximum altitude 01:40:58 18° 357° (N) 1,084 -0.9 -26.6°
Drops below altitude 10° 01:43:17 10° 42° (NE) 1,458 -0.3 -26.5°
Sets 01:45:50 0° 63° (ENE) 2,317 0.5 -26.4°
